Powrót do katalogu

STARLINK-6266

AktywnyŁącznośćVLEO
NORAD 56542·PAYLOAD·🇺🇸 United States

Wystrzelony May 14, 2023 z Cape Canaveral Space Force Station

Loading…

Następne Przeloty (najbliższe 24 godziny)

TLE

ŚwieżeSource: CelesTrak SupGP

Epoka: Sep 15, 2026, 03:00 UTC

1 56542C 23065AR  26258.12548611 -.00026965  00000+0 -97710-3 0  2583
2 56542  43.0000 237.0415 0000901 273.1042 146.0950 15.27577509    16

Śledź STARLINK-6266 w czasie rzeczywistym z AllMySat

Download on the App Store